Location: Betz
(49.1556°N, 2.9558°E)
Time: 06:42:41
(UTC+00:00)

Cosmos 2227 Rocket - Pass Details

Date: 18 September 2019
Orbit: 837 x 847 km, 71.0° (Epoch: 15 October)

Event Time Altitude Azimuth Distance (km) Brightness Sun altitude
Rises 19:02:12 0° 167° (SSE) 3,382 5.0 -11.5°
Reaches altitude 10° 19:05:02 10° 154° (SSE) 2,454 4.2 -12.0°
Maximum altitude 19:09:28 24° 102° (ESE) 1,668 3.1 -12.7°
Drops below altitude 10° 19:13:55 10° 50° (NE) 2,473 4.3 -13.4°
Sets 19:16:46 0° 38° (NE) 3,415 5.2 -13.8°
